Weather History for Perry, IA

Change the Weather History Date:

Friday, May 18, 2012

  Actual Average Record
Temperature  
Mean Temperature 76 °F -  
Max Temperature 93 °F 73 °F 93 °F (2012)
Min Temperature 60 °F 51 °F 38 °F (1976)
Cooling Degree Days 12    
Growing Degree Days 26 (Base 50)    
Moisture  
Dew Point 47 °F    
Average Humidity 36    
Maximum Humidity 59    
Minimum Humidity 17    
Precipitation  
Precipitation 0.00 in - - ()
Sea Level Pressure  
Sea Level Pressure 29.83 in    
Wind  
Wind Speed 15 mph (SSE)    
Max Wind Speed 28 mph    
Max Gust Speed 34 mph    
Visibility 10 miles    
Events      
Averages and records for this station are not official NWS values.
T = Trace of Precipitation, MM = Missing Value Source: NWS Daily Summary

Daily Weather History Graph

Daily Weather History Graph

Search for Another Location

Airport:

Trip Planner

Search our weather history database for the weather conditions in past years. The results will help you decide how hot, cold, wet, or windy it might be!

Date:

Astronomy

May. 18, 2012 Rise Set
Actual Time 5:53 AM CDT 8:33 PM CDT
Civil Twilight 5:21 AM CDT 9:05 PM CDT
Nautical Twilight 4:40 AM CDT 9:46 PM CDT
Astronomical Twilight 3:55 AM CDT 10:32 PM CDT
Moon 4:24 AM CDT (5/18) 6:41 PM CDT (5/18)
Length of Visible Light 15h 44m
Length of Day
14h 40m
Waning Crescent, 5% of the Moon is Illuminated
May 18
Waning Crescent
May 20
New
May 28
First Quarter
Jun 4
Full
Jun 11
Last Quarter

Hourly Weather History & Observations

Time (CDT) Temp. Dew Point Humidity Pressure Visibility Wind Dir Wind Speed Gust Speed Precip Events Conditions
12:15 AM 67.3 °F 46.4 °F 47% 29.87 in 10.0 mi SSE 16.1 mph - N/A   Clear
12:35 AM 67.1 °F 45.9 °F 46% 29.87 in 10.0 mi SSE 17.3 mph - N/A   Clear
12:55 AM 66.6 °F 45.9 °F 47% 29.87 in 10.0 mi SSE 15.0 mph - N/A   Clear
1:15 AM 66.4 °F 45.5 °F 47% 29.87 in 10.0 mi SSE 13.8 mph - N/A   Clear
1:35 AM 66.2 °F 45.5 °F 47% 29.87 in 10.0 mi SSE 12.7 mph - N/A   Clear
2:15 AM 65.8 °F 45.5 °F 48% 29.87 in 10.0 mi SSE 12.7 mph - N/A   Clear
2:35 AM 65.3 °F 45.7 °F 49% 29.87 in 10.0 mi SSE 11.5 mph - N/A   Clear
2:55 AM 64.8 °F 45.7 °F 50% 29.87 in 10.0 mi SSE 11.5 mph - N/A   Clear
3:15 AM 64.6 °F 45.7 °F 50% 29.88 in 10.0 mi SSE 10.4 mph - N/A   Clear
3:35 AM 63.9 °F 45.7 °F 52% 29.88 in 10.0 mi South 9.2 mph - N/A   Clear
3:55 AM 62.8 °F 45.7 °F 54% 29.88 in 10.0 mi South 5.8 mph - N/A   Clear
4:15 AM 62.8 °F 45.9 °F 54% 29.88 in 10.0 mi SSE 9.2 mph - N/A   Clear
4:35 AM 62.6 °F 45.9 °F 54% 29.88 in 10.0 mi SSE 9.2 mph - N/A   Clear
4:55 AM 62.2 °F 45.9 °F 55% 29.88 in 10.0 mi SSE 8.1 mph - N/A   Clear
5:15 AM 61.7 °F 46.0 °F 56% 29.88 in 10.0 mi SSE 8.1 mph - N/A   Clear
5:35 AM 60.6 °F 46.0 °F 59% 29.87 in 10.0 mi SSE 6.9 mph - N/A   Clear
5:55 AM 61.5 °F 46.0 °F 57% 29.88 in 10.0 mi SSE 8.1 mph - N/A   Clear
6:15 AM 60.8 °F 46.4 °F 59% 29.88 in 10.0 mi SE 6.9 mph - N/A   Clear
6:35 AM 61.5 °F 46.8 °F 58% 29.88 in 10.0 mi SE 8.1 mph - N/A   Clear
6:55 AM 63.3 °F 46.6 °F 54% 29.89 in 10.0 mi SSE 9.2 mph - N/A   Clear
7:15 AM 65.5 °F 46.9 °F 51% 29.89 in 10.0 mi SSE 9.2 mph - N/A   Clear
7:35 AM 67.6 °F 46.8 °F 47% 29.89 in 10.0 mi SSE 11.5 mph - N/A   Clear
7:55 AM 70.7 °F 46.9 °F 43% 29.88 in 10.0 mi SSE 12.7 mph - N/A   Clear
8:15 AM 72.0 °F 46.6 °F 40% 29.87 in 10.0 mi SSE 15.0 mph - N/A   Clear
8:55 AM 74.3 °F 48.0 °F 39% 29.87 in 10.0 mi SSE 17.3 mph - N/A   Clear
9:15 AM 76.3 °F 48.6 °F 38% 29.87 in 10.0 mi South 17.3 mph - N/A   Clear
9:35 AM 77.2 °F 49.5 °F 38% 29.87 in 10.0 mi South 17.3 mph - N/A   Clear
9:55 AM 80.4 °F 50.0 °F 34% 29.86 in 10.0 mi South 21.9 mph 25.3 mph N/A   Clear
10:15 AM 82.0 °F 49.6 °F 32% 29.86 in 10.0 mi South 18.4 mph 25.3 mph N/A   Clear
10:35 AM 83.7 °F 49.5 °F 30% 29.85 in 10.0 mi South 21.9 mph 27.6 mph N/A   Clear
10:55 AM 85.3 °F 48.9 °F 28% 29.85 in 10.0 mi South 24.2 mph 31.1 mph N/A   Clear
11:15 AM 87.3 °F 48.0 °F 26% 29.84 in 10.0 mi South 27.6 mph 32.2 mph N/A   Clear
11:35 AM 88.2 °F 47.7 °F 25% 29.83 in 10.0 mi South 25.3 mph 33.4 mph N/A   Clear
11:55 AM 88.7 °F 47.3 °F 24% 29.83 in 10.0 mi South 24.2 mph 34.5 mph N/A   Clear
12:15 PM 90.0 °F 46.9 °F 23% 29.83 in 10.0 mi SSE 25.3 mph 31.1 mph N/A   Clear
12:35 PM 89.2 °F 47.3 °F 23% 29.82 in 10.0 mi South 23.0 mph 32.2 mph N/A   Clear
12:55 PM 90.1 °F 46.6 °F 22% 29.82 in 10.0 mi South 24.2 mph 31.1 mph N/A   Clear
1:15 PM 91.4 °F 47.3 °F 22% 29.82 in 10.0 mi South 21.9 mph 29.9 mph N/A   Clear
1:35 PM 91.8 °F 46.6 °F 21% 29.81 in 10.0 mi South 21.9 mph 31.1 mph N/A   Clear
1:55 PM 91.9 °F 46.4 °F 21% 29.81 in 10.0 mi South 23.0 mph 29.9 mph N/A   Clear
2:15 PM 91.8 °F 45.9 °F 20% 29.81 in 10.0 mi South 21.9 mph 28.8 mph N/A   Clear
2:35 PM 92.8 °F 45.7 °F 20% 29.80 in 10.0 mi SSE 24.2 mph 31.1 mph N/A   Clear
2:55 PM 93.2 °F 43.0 °F 18% 29.80 in 10.0 mi South 20.7 mph 28.8 mph N/A   Clear
3:15 PM 92.5 °F 43.7 °F 18% 29.79 in 10.0 mi South 21.9 mph 29.9 mph N/A   Clear
3:35 PM 93.0 °F 42.3 °F 17% 29.79 in 10.0 mi South 23.0 mph 29.9 mph N/A   Clear
3:55 PM 92.7 °F 45.5 °F 20% 29.78 in 10.0 mi South 24.2 mph 29.9 mph N/A   Clear
4:15 PM 92.5 °F 44.4 °F 19% 29.78 in 10.0 mi SSE 19.6 mph 27.6 mph N/A   Clear
4:35 PM 91.9 °F 44.8 °F 20% 29.78 in 10.0 mi South 24.2 mph 32.2 mph N/A   Clear
4:55 PM 91.9 °F 44.2 °F 19% 29.77 in 10.0 mi South 26.5 mph 32.2 mph N/A   Clear
5:15 PM 91.4 °F 42.6 °F 18% 29.77 in 10.0 mi South 24.2 mph 33.4 mph N/A   Clear
5:35 PM 90.7 °F 42.6 °F 19% 29.77 in 10.0 mi SSE 23.0 mph 33.4 mph N/A   Clear
5:55 PM 89.2 °F 43.5 °F 20% 29.77 in 10.0 mi South 20.7 mph 27.6 mph N/A   Clear
6:15 PM 87.3 °F 47.7 °F 25% 29.77 in 10.0 mi SSE 23.0 mph 29.9 mph N/A   Clear
6:35 PM 86.7 °F 45.7 °F 24% 29.77 in 10.0 mi South 23.0 mph 31.1 mph N/A   Clear
6:55 PM 87.3 °F 46.4 °F 24% 29.77 in 10.0 mi South 19.6 mph 28.8 mph N/A   Clear
7:15 PM 86.4 °F 46.2 °F 25% 29.77 in 10.0 mi South 23.0 mph 29.9 mph N/A   Clear
7:35 PM 86.0 °F 46.4 °F 25% 29.77 in 10.0 mi South 17.3 mph 26.5 mph N/A   Clear
7:55 PM 84.6 °F 47.1 °F 27% 29.77 in 10.0 mi SSE 16.1 mph 21.9 mph N/A   Clear
8:15 PM 83.3 °F 47.8 °F 29% 29.78 in 10.0 mi SSE 13.8 mph - N/A   Clear
8:35 PM 82.2 °F 48.7 °F 31% 29.78 in 10.0 mi SSE 15.0 mph - N/A   Clear
8:55 PM 81.1 °F 49.1 °F 33% 29.78 in 10.0 mi SSE 13.8 mph - N/A   Clear
9:15 PM 79.9 °F 50.0 °F 35% 29.79 in 10.0 mi SSE 12.7 mph - N/A   Clear
9:35 PM 78.1 °F 50.5 °F 38% 29.79 in 10.0 mi SSE 12.7 mph - N/A   Clear
9:55 PM 76.8 °F 51.1 °F 40% 29.80 in 10.0 mi SE 10.4 mph - N/A   Clear
10:15 PM 75.6 °F 51.4 °F 43% 29.81 in 10.0 mi SSE 10.4 mph - N/A   Clear
10:35 PM 74.7 °F 52.2 °F 45% 29.82 in 10.0 mi SSE 10.4 mph - N/A   Clear
10:55 PM 72.9 °F 52.7 °F 49% 29.82 in 10.0 mi SSE 8.1 mph - N/A   Clear
11:15 PM 73.6 °F 53.1 °F 49% 29.82 in 10.0 mi SSE 10.4 mph - N/A   Clear
11:35 PM 72.9 °F 52.9 °F 49% 29.82 in 10.0 mi SSE 9.2 mph - N/A   Clear
11:55 PM 72.5 °F 52.9 °F 50% 29.82 in 10.0 mi SSE 9.2 mph - N/A   Clear